Flag for United Arab Emirates Weather past 2 weeks in Dubai, Dubai, United Arab Emirates

Now
66 °F

Passing clouds.


Feels Like: 66 °F
Forecast: 68 / 77 °F
Wind: 5 mph from South

Location: Dubai International Airport

Current Time: Dec 29, 2014 at 3:39:19 AM

Latest Report: Dec 29, 2014 at 3:00 AM


Visibility: 4 mi

Pressure: 30.04 "Hg

Humidity: 83%

Dew point: 61 °F

Location of DubaiLocation

Historic Weather in Dubai — Graph

°F

Dubai temperature yesterday

Maximum temperature yesterday: 75 °F (at 1:00 PM)
Minimum temperature yesterday: 63 °F (at 5:00 AM)
Average temperature yesterday: 70 °F

Past Weeks' High & Low Weather Summary

 TemperatureHumidityPressure
High84 °F (Dec 14, 3:00 PM)94% (Dec 23, 7:00 AM)30.21 "Hg (Dec 23, 7:00 AM)
Low59 °F (Dec 22, 6:00 AM)11% (Dec 14, 3:00 PM)29.92 "Hg (Dec 22, 3:00 PM)
Average72 °F57%30.09 "Hg
* Reported Dec 14 2:00 AM — Dec 29 2:00 AM, Dubai, Weather by CustomWeather, © 2014

Note: Actual official high and low records may vary slightly from our data, if they occured in-between our weather recording intervals... More about our weather records

Advertising

Dubai weather history for previous 24 hours

 ConditionsComfort  
Time TempWeatherWind HumidityBarometerVisibility
2:00 AM
Dec 29
66 °FPassing clouds.6 mph83%30.04 "Hg5 mi
1:00 AM68 °FPassing clouds.6 mph78%30.07 "Hg5 mi
12:00 AM68 °FPassing clouds.2 mph78%30.07 "HgN/A
11:00 PM
Dec 28
70 °FPassing clouds.6 mph78%30.07 "HgN/A
10:00 PM73 °FPassing clouds.3 mph69%30.09 "HgN/A
9:00 PM73 °FPassing clouds.5 mph65%30.09 "HgN/A
8:00 PM73 °FPassing clouds.6 mph69%30.07 "HgN/A
7:00 PM73 °FClear.9 mph69%30.07 "Hg10 mi
6:00 PM73 °FPassing clouds.10 mph65%30.07 "HgN/A
5:00 PM73 °FPassing clouds.10 mph65%30.04 "HgN/A
4:00 PM75 °FPassing clouds.12 mph61%30.04 "HgN/A
3:00 PM75 °FPassing clouds.12 mph57%30.04 "HgN/A
2:00 PM75 °FPassing clouds.9 mph54%30.07 "HgN/A
1:00 PM75 °FPassing clouds.8 mph57%30.07 "HgN/A
12:00 PM73 °FPassing clouds.7 mph61%30.12 "HgN/A
11:00 AM72 °FClear.6 mph65%30.12 "Hg5 mi
10:00 AM68 °FClear.6 mph73%30.15 "Hg4 mi
9:00 AM66 °FClear.6 mph73%30.12 "Hg4 mi
8:00 AM63 °FHaze.5 mph83%30.12 "Hg3 mi
7:00 AM63 °FPassing clouds.5 mph83%30.09 "Hg4 mi
6:00 AM63 °FPassing clouds.5 mph83%30.09 "Hg5 mi
5:00 AM63 °FPassing clouds.5 mph83%30.07 "Hg5 mi
4:00 AM64 °FPassing clouds.3 mph78%30.07 "HgN/A
3:00 AM66 °FPassing clouds.3 mph73%30.07 "HgN/A
Weather by CustomWeather, © 2014

See weather overviewHow to use our weather pages